Flag for Argentina Weather past 2 weeks in Salta, Salta, Argentina

Now
75 °F

Broken clouds.


Feels Like: 77 °F
Forecast: 65 / 82 °F
Wind: 7 mph from Northeast

Location: Jujuy Aerodrome

Current Time: Jan 31, 2015 at 12:14:33 PM

Latest Report: Jan 31, 2015 at 11:00 AM


Visibility: N/A

Pressure: 30.09 "Hg

Humidity: 69%

Dew point: 64 °F

Location of SaltaLocation

Historic Weather in Salta — Graph

°F

Salta temperature yesterday

Maximum temperature yesterday: 81 °F (at 3:00 PM)
Minimum temperature yesterday: 66 °F (at 4:00 AM)
Average temperature yesterday: 72 °F

Past Weeks' High & Low Weather Summary

 TemperatureHumidityPressure
High93 °F (Jan 28, 4:00 PM)100% (Jan 17, 11:00 PM)30.27 "Hg (Jan 17, 11:00 PM)
Low63 °F (Jan 21, 7:00 AM)32% (Jan 25, 4:00 PM)29.74 "Hg (Jan 26, 4:00 PM)
Average75 °F76%29.99 "Hg
* Reported Jan 16 11:00 AM — Jan 31 11:00 AM, Salta, Weather by CustomWeather, © 2014

Note: Actual official high and low records may vary slightly from our data, if they occured in-between our weather recording intervals... More about our weather records

Advertising

Salta weather history for previous 24 hours

 ConditionsComfort  
Time TempWeatherWind HumidityBarometerVisibility
11:00 AM
Jan 31
75 °FBroken clouds.7 mph69%30.09 "HgN/A
10:00 AM73 °FBroken clouds.9 mph74%30.09 "HgN/A
9:00 AM72 °FPartly sunny.2 mph83%30.09 "HgN/A
8:00 AM70 °FPartly sunny.No wind88%30.07 "HgN/A
7:00 AM70 °FFog.3 mph94%30.04 "Hg3 mi
6:00 AM70 °FMore clouds than sun.3 mph100%30.04 "Hg5 mi
4:00 AM70 °FMostly cloudy.3 mph100%30.04 "HgN/A
2:00 AM72 °FMostly cloudy.No wind83%30.07 "HgN/A
1:00 AM72 °FOvercast.No wind94%30.09 "HgN/A
12:00 AM72 °FOvercast.No wind94%30.09 "HgN/A
11:00 PM
Jan 30
72 °FClear.No wind94%30.09 "Hg10 mi
10:00 PM72 °FOvercast.No wind94%30.07 "HgN/A
9:00 PM73 °FOvercast.2 mph89%30.04 "HgN/A
8:00 PM73 °FMostly cloudy.2 mph78%29.92 "HgN/A
7:00 PM75 °FBroken clouds.3 mph74%30.01 "HgN/A
6:00 PM77 °FBroken clouds.5 mph69%30.01 "HgN/A
5:00 PM77 °FBroken clouds.3 mph69%30.04 "HgN/A
4:00 PM77 °FBroken clouds.9 mph65%30.04 "HgN/A
3:00 PM81 °FScattered clouds.13 mph62%30.04 "HgN/A
2:00 PM77 °FBroken clouds.9 mph69%30.07 "HgN/A
1:00 PM77 °FScattered clouds.8 mph65%30.09 "HgN/A
12:00 PM75 °FBroken clouds.5 mph74%30.12 "HgN/A
Weather by CustomWeather, © 2014

See weather overviewHow to use our weather pages